Time,TemperatureF,DewpointF,PressureIn,WindDirection,WindDirectionDegrees,WindSpeedMPH,WindSpeedGustMPH,Humidity,HourlyPrecipIn,Conditions,Clouds,dailyrainin,SolarRadiationWatts/m^2,SoftwareType,DateUTC
2013-09-20 00:00:00,80.5,71.5,30.01,West,270,5.0,12.0,74,0.00,,---,0.00,0.00,VWS V14.01,2013-09-20 04:00:00,
2013-09-20 00:11:00,80.5,71.0,30.00,WSW,247,7.0,7.0,73,0.00,,,0.00,0,weatherlink.com 1.10,2013-09-20 04:11:00,
2013-09-20 00:26:00,80.3,71.0,30.01,West,265,6.0,8.0,72,0.00,,,0.00,0,weatherlink.com 1.10,2013-09-20 04:26:00,
2013-09-20 00:30:00,80.3,70.9,30.01,West,270,5.0,9.0,73,0.00,,---,0.00,0.00,VWS V14.01,2013-09-20 04:30:00,
2013-09-20 00:41:00,80.3,71.0,30.00,WSW,249,5.0,7.0,73,0.00,,,0.00,0,weatherlink.com 1.10,2013-09-20 04:41:00,
2013-09-20 00:56:00,80.3,71.0,30.00,SSW,200,3.0,6.0,73,0.00,,,0.00,0,weatherlink.com 1.10,2013-09-20 04:56:00,
2013-09-20 01:00:00,80.3,70.5,30.00,WSW,248,4.0,10.0,72,0.00,,---,0.00,0.00,VWS V14.01,2013-09-20 05:00:00,
2013-09-20 01:11:00,80.3,71.0,30.00,WSW,253,4.0,10.0,72,0.00,,,0.00,0,weatherlink.com 1.10,2013-09-20 05:11:00,
2013-09-20 01:26:00,80.3,71.0,30.00,WSW,257,4.0,7.0,74,0.00,,,0.00,0,weatherlink.com 1.10,2013-09-20 05:26:00,
2013-09-20 01:30:00,80.3,71.7,29.99,West,270,4.0,10.0,75,0.00,,---,0.00,0.00,VWS V14.01,2013-09-20 05:30:00,
2013-09-20 01:41:00,80.2,71.0,29.99,West,272,7.0,8.0,73,0.00,,,0.00,0,weatherlink.com 1.10,2013-09-20 05:41:00,
2013-09-20 01:56:00,80.2,70.0,29.99,West,271,4.0,9.0,72,0.00,,,0.00,0,weatherlink.com 1.10,2013-09-20 05:56:00,
2013-09-20 02:00:00,80.2,70.8,29.99,WSW,248,5.0,10.0,73,0.00,,---,0.00,0.00,VWS V14.01,2013-09-20 06:00:00,
2013-09-20 02:11:00,80.1,70.0,30.00,WSW,256,4.0,9.0,72,0.00,,,0.00,0,weatherlink.com 1.10,2013-09-20 06:11:00,
2013-09-20 02:26:00,79.9,69.0,29.99,WSW,250,5.0,8.0,70,0.00,,,0.00,0,weatherlink.com 1.10,2013-09-20 06:26:00,
2013-09-20 02:30:00,79.9,69.2,29.99,WSW,248,4.0,9.0,70,0.00,,---,0.00,0.00,VWS V14.01,2013-09-20 06:30:00,
2013-09-20 02:41:00,79.8,70.0,29.99,WSW,248,4.0,7.0,72,0.00,,,0.00,0,weatherlink.com 1.10,2013-09-20 06:41:00,
2013-09-20 02:56:00,79.8,70.0,29.99,WSW,237,4.0,6.0,72,0.00,,,0.00,0,weatherlink.com 1.10,2013-09-20 06:56:00,
2013-09-20 03:00:00,79.7,69.9,29.99,WSW,248,3.0,7.0,72,0.00,,---,0.00,0.00,VWS V14.01,2013-09-20 07:00:00,
2013-09-20 03:11:00,79.7,70.0,29.99,SW,231,4.0,8.0,71,0.00,,,0.00,0,weatherlink.com 1.10,2013-09-20 07:11:00,
2013-09-20 03:26:00,79.7,70.0,29.99,WNW,284,3.0,8.0,71,0.00,,,0.00,0,weatherlink.com 1.10,2013-09-20 07:26:00,
2013-09-20 03:30:00,79.7,69.5,29.99,West,270,3.0,8.0,71,0.00,,---,0.00,0.00,VWS V14.01,2013-09-20 07:30:00,
2013-09-20 03:42:00,79.6,70.0,29.99,West,269,2.0,5.0,72,0.00,,,0.00,0,weatherlink.com 1.10,2013-09-20 07:42:00,
2013-09-20 03:57:00,79.6,70.0,29.98,West,271,3.0,8.0,73,0.00,,,0.00,0,weatherlink.com 1.10,2013-09-20 07:57:00,
2013-09-20 04:00:00,79.5,70.1,29.98,West,270,3.0,8.0,73,0.00,,---,0.00,0.00,VWS V14.01,2013-09-20 08:00:00,
2013-09-20 04:12:00,79.5,70.0,29.98,West,265,1.0,5.0,72,0.00,,,0.00,0,weatherlink.com 1.10,2013-09-20 08:12:00,
2013-09-20 04:27:00,79.3,70.0,29.98,WSW,238,2.0,5.0,73,0.00,,,0.00,0,weatherlink.com 1.10,2013-09-20 08:27:00,
2013-09-20 04:30:00,79.2,69.8,29.98,West,270,2.0,6.0,73,0.00,,---,0.00,0.00,VWS V14.01,2013-09-20 08:30:00,
2013-09-20 04:42:00,79.2,70.0,29.98,SSW,205,2.0,5.0,73,0.00,,,0.00,0,weatherlink.com 1.10,2013-09-20 08:42:00,
2013-09-20 04:57:00,79.2,70.0,29.98,WSW,240,1.0,6.0,74,0.00,,,0.00,0,weatherlink.com 1.10,2013-09-20 08:57:00,
2013-09-20 05:00:00,79.2,70.2,29.98,WSW,248,2.0,6.0,74,0.00,,---,0.00,0.00,VWS V14.01,2013-09-20 09:00:00,
2013-09-20 05:12:00,79.2,70.0,29.98,SW,233,3.0,4.0,74,0.00,,,0.00,0,weatherlink.com 1.10,2013-09-20 09:12:00,
2013-09-20 05:27:00,79.2,70.0,29.98,SW,234,3.0,6.0,73,0.00,,,0.00,0,weatherlink.com 1.10,2013-09-20 09:27:00,
2013-09-20 05:30:00,79.2,69.8,29.98,SW,225,3.0,8.0,73,0.00,,---,0.00,0.00,VWS V14.01,2013-09-20 09:30:00,
2013-09-20 05:42:00,79.3,70.0,29.98,SW,228,4.0,6.0,74,0.00,,,0.00,0,weatherlink.com 1.10,2013-09-20 09:42:00,
2013-09-20 05:57:00,79.1,70.0,29.98,SSW,211,3.0,6.0,73,0.00,,,0.00,0,weatherlink.com 1.10,2013-09-20 09:57:00,
2013-09-20 06:00:00,79.1,69.7,29.98,SW,225,3.0,6.0,73,0.00,,---,0.00,0.00,VWS V14.01,2013-09-20 10:00:00,
2013-09-20 06:12:00,79.1,69.0,29.98,WSW,243,1.0,6.0,72,0.00,,,0.00,0,weatherlink.com 1.10,2013-09-20 10:12:00,
2013-09-20 06:27:00,79.2,69.0,29.98,SSW,202,3.0,5.0,72,0.00,,,0.00,0,weatherlink.com 1.10,2013-09-20 10:27:00,
2013-09-20 06:30:00,79.2,69.4,29.98,SW,225,3.0,7.0,72,0.00,,---,0.00,0.00,VWS V14.01,2013-09-20 10:30:00,
2013-09-20 06:42:00,79.2,70.0,29.98,WSW,250,3.0,7.0,73,0.00,,,0.00,0,weatherlink.com 1.10,2013-09-20 10:42:00,
2013-09-20 06:57:00,79.3,71.0,29.98,SW,217,2.0,6.0,75,0.00,,,0.00,0,weatherlink.com 1.10,2013-09-20 10:57:00,
2013-09-20 07:00:00,79.3,70.7,29.98,SW,225,3.0,8.0,75,0.00,,---,0.00,0.00,VWS V14.01,2013-09-20 11:00:00,
2013-09-20 07:12:00,79.5,71.0,29.98,SW,229,2.0,8.0,75,0.00,,,0.00,7,weatherlink.com 1.10,2013-09-20 11:12:00,
2013-09-20 07:27:00,79.6,70.0,29.98,SW,230,4.0,7.0,73,0.00,,,0.00,21,weatherlink.com 1.10,2013-09-20 11:27:00,
2013-09-20 07:30:00,79.6,70.2,29.98,SW,225,4.0,8.0,73,0.00,,---,0.00,9.00,VWS V14.01,2013-09-20 11:30:00,
2013-09-20 07:42:00,80.0,71.0,29.98,SSW,195,2.0,8.0,73,0.00,,,0.00,53,weatherlink.com 1.10,2013-09-20 11:42:00,
2013-09-20 07:57:00,80.4,71.0,29.99,SW,221,5.0,9.0,73,0.00,,,0.00,97,weatherlink.com 1.10,2013-09-20 11:57:00,
2013-09-20 08:00:00,80.4,71.0,29.99,SW,225,4.0,9.0,73,0.00,,---,0.00,59.00,VWS V14.01,2013-09-20 12:00:00,
2013-09-20 08:12:00,80.7,70.0,29.99,SW,219,3.0,10.0,70,0.00,,,0.00,158,weatherlink.com 1.10,2013-09-20 12:12:00,
2013-09-20 08:27:00,81.2,70.0,30.00,WSW,243,2.0,9.0,69,0.00,,,0.00,216,weatherlink.com 1.10,2013-09-20 12:27:00,
2013-09-20 08:30:00,81.2,70.1,30.00,SW,225,4.0,10.0,69,0.00,,---,0.00,163.00,VWS V14.01,2013-09-20 12:30:00,
2013-09-20 08:42:00,81.5,70.0,30.00,WNW,302,4.0,11.0,67,0.00,,,0.00,276,weatherlink.com 1.10,2013-09-20 12:42:00,
2013-09-20 08:57:00,81.9,69.0,30.00,South,177,6.0,9.0,65,0.00,,,0.00,330,weatherlink.com 1.10,2013-09-20 12:57:00,
2013-09-20 09:00:00,82.0,69.1,30.00,SW,225,4.0,11.0,65,0.00,,---,0.00,279.00,VWS V14.01,2013-09-20 13:00:00,
2013-09-20 09:12:00,82.1,69.0,30.00,SW,221,5.0,8.0,65,0.00,,,0.00,387,weatherlink.com 1.10,2013-09-20 13:12:00,
2013-09-20 09:27:00,82.1,70.0,30.01,SSW,202,2.0,10.0,67,0.00,,,0.00,438,weatherlink.com 1.10,2013-09-20 13:27:00,
2013-09-20 09:30:00,82.1,70.1,30.01,WSW,248,5.0,13.0,67,0.00,,---,0.00,389.00,VWS V14.01,2013-09-20 13:30:00,
2013-09-20 09:42:00,82.4,70.0,30.01,WNW,296,6.0,10.0,66,0.00,,,0.00,489,weatherlink.com 1.10,2013-09-20 13:42:00,
2013-09-20 09:57:00,82.8,70.0,30.01,WSW,257,3.0,11.0,65,0.00,,,0.00,541,weatherlink.com 1.10,2013-09-20 13:57:00,
2013-09-20 10:00:00,82.9,69.9,30.01,WNW,292,5.0,11.0,65,0.00,,---,0.00,491.00,VWS V14.01,2013-09-20 14:00:00,
2013-09-20 10:13:00,83.7,70.0,30.02,West,261,5.0,9.0,64,0.00,,,0.00,587,weatherlink.com 1.10,2013-09-20 14:13:00,
2013-09-20 10:28:00,82.8,69.0,30.02,NNW,335,8.0,14.0,64,0.00,,,0.00,631,weatherlink.com 1.10,2013-09-20 14:28:00,
2013-09-20 10:30:00,82.8,70.3,30.02,WNW,292,5.0,14.0,66,0.00,,---,0.00,590.00,VWS V14.01,2013-09-20 14:30:00,
2013-09-20 10:43:00,83.3,70.0,30.02,West,267,2.0,11.0,64,0.00,,,0.00,668,weatherlink.com 1.10,2013-09-20 14:43:00,
2013-09-20 10:58:00,84.5,70.0,30.02,WSW,251,3.0,9.0,61,0.00,,,0.00,715,weatherlink.com 1.10,2013-09-20 14:58:00,
2013-09-20 11:00:00,84.5,69.6,30.01,West,270,5.0,13.0,61,0.00,,---,0.00,674.00,VWS V14.01,2013-09-20 15:00:00,
2013-09-20 11:13:00,85.4,70.0,30.01,West,268,2.0,9.0,60,0.00,,,0.00,747,weatherlink.com 1.10,2013-09-20 15:13:00,
2013-09-20 11:28:00,85.3,70.0,30.01,WSW,250,4.0,10.0,60,0.00,,,0.00,788,weatherlink.com 1.10,2013-09-20 15:28:00,
2013-09-20 11:30:00,85.3,69.8,30.01,SW,225,4.0,10.0,60,0.00,,---,0.00,752.00,VWS V14.01,2013-09-20 15:30:00,
2013-09-20 11:43:00,86.0,69.0,30.00,WSW,239,5.0,10.0,58,0.00,,,0.00,814,weatherlink.com 1.10,2013-09-20 15:43:00,
2013-09-20 11:58:00,86.0,70.0,30.00,SW,223,8.0,10.0,59,0.00,,,0.00,837,weatherlink.com 1.10,2013-09-20 15:58:00,
2013-09-20 12:00:00,86.0,70.0,30.00,SW,225,5.0,12.0,59,0.00,,---,0.00,815.00,VWS V14.01,2013-09-20 16:00:00,
2013-09-20 12:13:00,85.9,69.0,30.00,WNW,290,3.0,11.0,58,0.00,,,0.00,860,weatherlink.com 1.10,2013-09-20 16:13:00,
2013-09-20 12:28:00,86.7,70.0,30.00,South,184,4.0,10.0,57,0.00,,,0.00,875,weatherlink.com 1.10,2013-09-20 16:28:00,
2013-09-20 12:30:00,86.7,69.7,30.00,SW,225,4.0,11.0,57,0.00,,---,0.00,859.00,VWS V14.01,2013-09-20 16:30:00,
2013-09-20 12:43:00,86.9,69.0,29.99,SW,232,4.0,10.0,56,0.00,,,0.00,891,weatherlink.com 1.10,2013-09-20 16:43:00,
2013-09-20 12:58:00,87.4,70.0,29.98,West,279,8.0,9.0,56,0.00,,,0.00,896,weatherlink.com 1.10,2013-09-20 16:58:00,
2013-09-20 13:00:00,87.3,70.2,29.98,SW,225,4.0,10.0,57,0.00,,---,0.00,889.00,VWS V14.01,2013-09-20 17:00:00,
2013-09-20 13:13:00,87.5,69.0,29.98,NW,311,4.0,9.0,55,0.00,,,0.00,905,weatherlink.com 1.10,2013-09-20 17:13:00,
2013-09-20 13:28:00,87.9,69.0,29.98,WSW,242,2.0,7.0,54,0.00,,,0.00,905,weatherlink.com 1.10,2013-09-20 17:28:00,
2013-09-20 13:30:00,87.9,69.2,29.98,SW,225,4.0,9.0,54,0.00,,---,0.00,902.00,VWS V14.01,2013-09-20 17:30:00,
2013-09-20 13:43:00,88.6,70.0,29.98,SSW,203,4.0,8.0,54,0.00,,,0.00,900,weatherlink.com 1.10,2013-09-20 17:43:00,
2013-09-20 13:58:00,87.8,70.0,29.97,SW,215,1.0,7.0,56,0.00,,,0.00,244,weatherlink.com 1.10,2013-09-20 17:58:00,
2013-09-20 14:00:00,87.8,70.2,29.98,SW,225,3.0,9.0,56,0.00,,---,0.00,889.00,VWS V14.01,2013-09-20 18:00:00,
2013-09-20 14:13:00,88.9,70.0,29.97,West,280,3.0,8.0,54,0.00,,,0.00,993,weatherlink.com 1.10,2013-09-20 18:13:00,
2013-09-20 14:28:00,87.7,71.0,29.96,SSW,192,5.0,6.0,57,0.00,,,0.00,1009,weatherlink.com 1.10,2013-09-20 18:28:00,
2013-09-20 14:30:00,87.7,70.6,29.96,SW,225,3.0,8.0,57,0.00,,---,0.00,936.00,VWS V14.01,2013-09-20 18:30:00,
2013-09-20 14:43:00,87.2,71.0,29.96,SSW,193,2.0,9.0,58,0.00,,,0.00,279,weatherlink.com 1.10,2013-09-20 18:43:00,
2013-09-20 14:58:00,87.7,70.0,29.95,SW,217,1.0,6.0,55,0.00,,,0.00,826,weatherlink.com 1.10,2013-09-20 18:58:00,
2013-09-20 15:00:00,87.6,68.9,29.96,SW,225,3.0,9.0,54,0.00,,---,0.00,734.00,VWS V14.01,2013-09-20 19:00:00,
2013-09-20 15:13:00,87.8,69.0,29.95,WNW,288,2.0,6.0,53,0.00,,,0.00,793,weatherlink.com 1.10,2013-09-20 19:13:00,
2013-09-20 15:28:00,88.3,67.0,29.95,West,264,3.0,7.0,50,0.00,,,0.00,759,weatherlink.com 1.10,2013-09-20 19:28:00,
2013-09-20 15:30:00,88.3,67.3,29.95,SW,225,3.0,7.0,50,0.00,,---,0.00,794.00,VWS V14.01,2013-09-20 19:30:00,
2013-09-20 15:43:00,88.6,69.0,29.95,South,191,2.0,5.0,53,0.00,,,0.00,722,weatherlink.com 1.10,2013-09-20 19:43:00,
2013-09-20 15:58:00,88.4,69.0,29.95,SSW,213,1.0,5.0,53,0.00,,,0.00,684,weatherlink.com 1.10,2013-09-20 19:58:00,
2013-09-20 16:00:00,88.4,69.1,29.94,SW,225,3.0,7.0,53,0.00,,---,0.00,724.00,VWS V14.01,2013-09-20 20:00:00,
2013-09-20 16:13:00,88.2,69.0,29.94,WSW,251,4.0,5.0,53,0.00,,,0.00,643,weatherlink.com 1.10,2013-09-20 20:13:00,
2013-09-20 16:28:00,88.0,70.0,29.94,SW,215,1.0,5.0,56,0.00,,,0.00,585,weatherlink.com 1.10,2013-09-20 20:28:00,
2013-09-20 16:30:00,88.1,69.9,29.94,SW,225,3.0,6.0,55,0.00,,---,0.00,637.00,VWS V14.01,2013-09-20 20:30:00,
2013-09-20 16:43:00,87.9,71.0,29.93,SW,219,3.0,5.0,58,0.00,,,0.00,554,weatherlink.com 1.10,2013-09-20 20:43:00,
2013-09-20 16:59:00,87.8,72.0,29.93,SW,232,4.0,6.0,59,0.00,,,0.00,582,weatherlink.com 1.10,2013-09-20 20:59:00,
2013-09-20 17:00:00,87.8,71.7,29.93,SW,225,2.0,5.0,59,0.00,,---,0.00,573.00,VWS V14.01,2013-09-20 21:00:00,
2013-09-20 17:14:00,87.5,71.0,29.93,WSW,254,2.0,5.0,59,0.00,,,0.00,468,weatherlink.com 1.10,2013-09-20 21:14:00,
2013-09-20 17:29:00,85.9,70.0,29.92,SSW,209,6.0,7.0,59,0.00,,,0.00,79,weatherlink.com 1.10,2013-09-20 21:29:00,
2013-09-20 17:30:00,86.0,70.0,29.92,SW,225,3.0,8.0,59,0.00,,---,0.00,430.00,VWS V14.01,2013-09-20 21:30:00,
2013-09-20 17:44:00,85.7,71.0,29.92,WSW,242,2.0,7.0,62,0.00,,,0.00,334,weatherlink.com 1.10,2013-09-20 21:44:00,
2013-09-20 17:59:00,85.1,71.0,29.92,SW,221,5.0,7.0,62,0.00,,,0.00,306,weatherlink.com 1.10,2013-09-20 21:59:00,
2013-09-20 18:00:00,85.2,70.7,29.92,SW,225,3.0,7.0,62,0.00,,---,0.00,311.00,VWS V14.01,2013-09-20 22:00:00,
2013-09-20 18:14:00,85.0,71.0,29.92,WSW,240,4.0,8.0,63,0.00,,,0.00,234,weatherlink.com 1.10,2013-09-20 22:14:00,
2013-09-20 18:29:00,83.7,71.0,29.92,SE,137,4.0,6.0,65,0.00,,,0.00,162,weatherlink.com 1.10,2013-09-20 22:29:00,
2013-09-20 18:30:00,83.8,70.8,29.92,SW,225,3.0,8.0,65,0.00,,---,0.00,187.00,VWS V14.01,2013-09-20 22:30:00,
2013-09-20 18:44:00,83.2,70.0,29.92,SW,226,2.0,7.0,65,0.00,,,0.00,93,weatherlink.com 1.10,2013-09-20 22:44:00,
2013-09-20 18:59:00,82.7,70.0,29.92,ENE,70,5.0,7.0,66,0.00,,,0.00,40,weatherlink.com 1.10,2013-09-20 22:59:00,
2013-09-20 19:00:00,82.7,70.2,29.92,SW,225,3.0,9.0,66,0.00,,---,0.00,98.00,VWS V14.01,2013-09-20 23:00:00,
2013-09-20 19:14:00,82.1,71.0,29.91,West,267,5.0,7.0,68,0.00,,,0.00,12,weatherlink.com 1.10,2013-09-20 23:14:00,
2013-09-20 19:29:00,81.5,70.0,29.91,SSW,200,2.0,7.0,68,0.00,,,0.00,0,weatherlink.com 1.10,2013-09-20 23:29:00,
2013-09-20 19:30:00,81.5,69.9,29.91,WSW,248,4.0,7.0,68,0.00,,---,0.00,15.00,VWS V14.01,2013-09-20 23:30:00,
2013-09-20 19:44:00,81.2,69.0,29.91,WSW,240,2.0,8.0,67,0.00,,,0.00,0,weatherlink.com 1.10,2013-09-20 23:44:00,
2013-09-20 19:59:00,81.2,70.0,29.91,SW,222,3.0,6.0,69,0.00,,,0.00,0,weatherlink.com 1.10,2013-09-20 23:59:00,
2013-09-20 20:00:00,81.2,70.1,29.92,WSW,248,3.0,8.0,69,0.00,,---,0.00,0.00,VWS V14.01,2013-09-21 00:00:00,
2013-09-20 20:14:00,80.9,71.0,29.92,West,266,5.0,9.0,71,0.00,,,0.00,0,weatherlink.com 1.10,2013-09-21 00:14:00,
2013-09-20 20:29:00,80.7,71.0,29.92,SSW,209,4.0,7.0,72,0.00,,,0.00,0,weatherlink.com 1.10,2013-09-21 00:29:00,
2013-09-20 20:30:00,80.7,70.8,29.92,WSW,248,4.0,9.0,72,0.00,,---,0.00,0.00,VWS V14.01,2013-09-21 00:30:00,
2013-09-20 20:44:00,80.6,70.0,29.92,SW,236,5.0,8.0,71,0.00,,,0.00,0,weatherlink.com 1.10,2013-09-21 00:44:00,
2013-09-20 20:59:00,80.5,71.0,29.92,WSW,242,7.0,8.0,72,0.00,,,0.00,0,weatherlink.com 1.10,2013-09-21 00:59:00,
2013-09-20 21:00:00,80.5,70.7,29.92,WSW,248,3.0,8.0,72,0.00,,---,0.00,0.00,VWS V14.01,2013-09-21 01:00:00,
2013-09-20 21:14:00,80.5,71.0,29.92,West,267,6.0,7.0,73,0.00,,,0.00,0,weatherlink.com 1.10,2013-09-21 01:14:00,
2013-09-20 21:29:00,80.5,71.0,29.92,WSW,238,1.0,7.0,73,0.00,,,0.00,0,weatherlink.com 1.10,2013-09-21 01:29:00,
2013-09-20 21:30:00,80.5,71.1,29.92,WSW,248,4.0,7.0,73,0.00,,---,0.00,0.00,VWS V14.01,2013-09-21 01:30:00,
2013-09-20 21:44:00,80.5,71.0,29.92,WSW,252,3.0,6.0,73,0.00,,,0.00,0,weatherlink.com 1.10,2013-09-21 01:44:00,
2013-09-20 21:59:00,80.6,72.0,29.93,NW,316,4.0,6.0,74,0.00,,,0.00,0,weatherlink.com 1.10,2013-09-21 01:59:00,
2013-09-20 22:00:00,80.6,71.2,29.93,WSW,248,4.0,7.0,73,0.00,,---,0.00,0.00,VWS V14.01,2013-09-21 02:00:00,
2013-09-20 22:14:00,80.8,72.0,29.93,SSE,153,2.0,6.0,74,0.00,,,0.00,0,weatherlink.com 1.10,2013-09-21 02:14:00,
2013-09-20 22:29:00,80.8,72.0,29.93,SW,217,3.0,7.0,74,0.00,,,0.00,0,weatherlink.com 1.10,2013-09-21 02:29:00,
2013-09-20 22:30:00,80.8,71.7,29.93,WSW,248,4.0,8.0,74,0.00,,---,0.00,0.00,VWS V14.01,2013-09-21 02:30:00,
2013-09-20 22:44:00,80.8,72.0,29.93,SSW,207,3.0,6.0,74,0.00,,,0.00,0,weatherlink.com 1.10,2013-09-21 02:44:00,
2013-09-20 22:59:00,80.8,72.0,29.93,SSE,156,3.0,8.0,75,0.00,,,0.00,0,weatherlink.com 1.10,2013-09-21 02:59:00,
2013-09-20 23:00:00,80.8,72.1,29.93,WSW,248,3.0,8.0,75,0.00,,---,0.00,0.00,VWS V14.01,2013-09-21 03:00:00,
2013-09-20 23:14:00,80.9,72.0,29.93,WSW,237,3.0,10.0,75,0.00,,,0.00,0,weatherlink.com 1.10,2013-09-21 03:14:00,
2013-09-20 23:29:00,80.7,72.0,29.94,WSW,252,3.0,6.0,74,0.00,,,0.00,0,weatherlink.com 1.10,2013-09-21 03:29:00,
2013-09-20 23:30:00,80.7,71.7,29.94,WSW,248,3.0,10.0,74,0.00,,---,0.00,0.00,VWS V14.01,2013-09-21 03:30:00,
2013-09-20 23:44:00,80.6,72.0,29.94,SSW,211,2.0,6.0,75,0.00,,,0.00,0,weatherlink.com 1.10,2013-09-21 03:44:00,
2013-09-20 23:59:00,80.5,72.0,29.93,WNW,282,4.0,5.0,75,0.00,,,0.00,0,weatherlink.com 1.10,2013-09-21 03:59:00,